Charter Quote
Worldwide +44-20-3874-8091 Call
Select Language Lang
SAFETY RELIABILITY EXPERIENCE

Lombok International Airport (WADL) - Jet Charter Services

AIRPORT INFORMATION
ICAOWADL
IATALOP
LOCATIONMataram, Indonesia
FACILITY TYPEAIRPORT
Runway Length (ft) Width (ft) Surface Type Elevation (ft)
13/31 9000 150 ASPH 319.00000

At Paramount Business Jets you can hire chartered private jets to and from Lombok International Airport with as little as 4 hours of notice. All flights booked via Paramount Business Jets are operated by certified direct air carriers that meet and exceed the FAA part 135 and 121 protocol or a foreign equivalent safety authority. Furthermore, Paramount Business Jets subscribes to ARGUS for their third party safety checks of operators, aircraft, and crews prior each and every flight to and from Lombok International Airport and worldwide.

  • Quote a trip using Lombok International Airport or call us 24/7 - 365 days a year at +44-20-3874-8091.
Questions? Call +44-20-3874-8091

METAR Weather Data at Lombok International Airport, WADL, LOP

STATIONWADL
OBSERVEDThu Jun 20, 13:00 UTC
NOWThu Jun 20, 13:10 UTC
AGE10 min ago
WINDW at 1 mph
VISIBILITY11 miles
CLOUDSpartly cloudy
TEMP73°F (23°C)
DEWPT70°F (21°C)
HUMIDITY89%
BAROMETER1012 hPa (29.88 in Hg)
METARWADL 201300Z 28001KT 7000 FEW016 23/21 Q1012 NOSIG

Call us on +44-20-3874-8091 (24 Hours) to Hire a Private Jet or Get a Quick Quote.

Find Airports Near any Location

Processing
...